TimeCST,TemperatureF,Dew PointF,Humidity,Sea Level PressureIn,VisibilityMPH,Wind Direction,Wind SpeedMPH,Gust SpeedMPH,PrecipitationIn,Events,Conditions,WindDirDegrees,DateUTC
12:15 AM,5.0,-11.2,47,30.19,10.0,NW,24.2,34.5,N/A,,Overcast,320,2014-01-27 06:15:00
12:35 AM,3.2,-13.0,47,30.19,10.0,NNW,23.0,35.7,N/A,,Mostly Cloudy,330,2014-01-27 06:35:00
12:55 AM,3.2,-13.0,47,30.20,10.0,NW,20.7,31.1,N/A,,Mostly Cloudy,320,2014-01-27 06:55:00
1:15 AM,3.2,-11.2,51,30.20,10.0,NW,26.5,33.4,N/A,,Mostly Cloudy,310,2014-01-27 07:15:00
1:35 AM,1.4,-13.0,51,30.22,10.0,NW,23.0,36.8,N/A,,Mostly Cloudy,320,2014-01-27 07:35:00
1:55 AM,1.4,-13.0,51,30.23,10.0,NW,20.7,34.5,N/A,,Scattered Clouds,320,2014-01-27 07:55:00
2:15 AM,1.4,-14.8,47,30.24,10.0,NW,21.9,33.4,N/A,,Scattered Clouds,320,2014-01-27 08:15:00
2:35 AM,1.4,-13.0,51,30.25,10.0,NNW,25.3,31.1,N/A,,Mostly Cloudy,330,2014-01-27 08:35:00
2:55 AM,1.4,-14.8,47,30.26,10.0,NNW,18.4,32.2,N/A,,Scattered Clouds,330,2014-01-27 08:55:00
3:15 AM,1.4,-14.8,47,30.27,-9999.0,NW,19.6,31.1,N/A,,Partly Cloudy,320,2014-01-27 09:15:00
3:35 AM,1.4,-14.8,47,30.27,10.0,NW,23.0,-,N/A,,Clear,320,2014-01-27 09:35:00
3:55 AM,1.4,-14.8,47,30.27,10.0,NW,24.2,-,N/A,,Clear,320,2014-01-27 09:55:00
4:15 AM,1.4,-14.8,47,30.27,10.0,NNW,25.3,32.2,N/A,,Clear,330,2014-01-27 10:15:00
4:35 AM,1.4,-14.8,47,30.28,10.0,NW,23.0,34.5,N/A,,Clear,320,2014-01-27 10:35:00
4:55 AM,1.4,-14.8,47,30.29,10.0,NW,25.3,31.1,N/A,,Clear,320,2014-01-27 10:55:00
5:15 AM,-0.4,-14.8,51,30.30,10.0,NW,18.4,29.9,N/A,,Clear,310,2014-01-27 11:15:00
5:35 AM,-0.4,-16.6,46,30.31,10.0,NW,19.6,31.1,N/A,,Clear,320,2014-01-27 11:35:00
5:55 AM,-0.4,-16.6,46,30.32,10.0,NW,20.7,-,N/A,,Clear,320,2014-01-27 11:55:00
6:15 AM,-0.4,-18.4,43,30.33,10.0,NW,18.4,27.6,N/A,,Clear,320,2014-01-27 12:15:00
6:35 AM,-0.4,-16.6,46,30.33,10.0,NW,23.0,31.1,N/A,,Clear,320,2014-01-27 12:35:00
6:55 AM,-2.2,-16.6,50,30.34,10.0,NW,18.4,26.5,N/A,,Clear,320,2014-01-27 12:55:00
7:15 AM,-2.2,-16.6,50,30.35,10.0,NW,15.0,21.9,N/A,,Clear,320,2014-01-27 13:15:00
7:35 AM,-2.2,-16.6,50,30.36,10.0,NW,16.1,-,N/A,,Clear,320,2014-01-27 13:35:00
7:55 AM,-2.2,-14.8,55,30.37,10.0,NW,12.7,-,N/A,,Clear,310,2014-01-27 13:55:00
8:15 AM,-2.2,-16.6,50,30.38,10.0,NW,18.4,29.9,N/A,,Scattered Clouds,310,2014-01-27 14:15:00
8:35 AM,-0.4,-16.6,46,30.40,10.0,NW,18.4,25.3,N/A,,Scattered Clouds,310,2014-01-27 14:35:00
8:55 AM,-0.4,-16.6,46,30.41,10.0,NW,18.4,24.2,N/A,,Mostly Cloudy,310,2014-01-27 14:55:00
9:15 AM,-0.4,-16.6,46,30.41,10.0,NW,19.6,25.3,N/A,,Scattered Clouds,320,2014-01-27 15:15:00
9:35 AM,1.4,-14.8,47,30.41,10.0,NW,18.4,-,N/A,,Mostly Cloudy,310,2014-01-27 15:35:00
9:55 AM,1.4,-14.8,47,30.42,10.0,NW,17.3,-,N/A,,Mostly Cloudy,310,2014-01-27 15:55:00
10:15 AM,1.4,-14.8,47,30.42,10.0,WNW,21.9,28.8,N/A,,Scattered Clouds,300,2014-01-27 16:15:00
10:35 AM,1.4,-14.8,47,30.42,10.0,NW,18.4,25.3,N/A,,Scattered Clouds,320,2014-01-27 16:35:00
10:55 AM,3.2,-14.8,43,30.43,10.0,NW,18.4,-,N/A,,Scattered Clouds,320,2014-01-27 16:55:00
11:15 AM,1.4,-16.6,43,30.43,10.0,NNW,20.7,26.5,N/A,,Partly Cloudy,330,2014-01-27 17:15:00
11:35 AM,3.2,-16.6,39,30.43,10.0,NNW,17.3,-,N/A,,Clear,330,2014-01-27 17:35:00
11:55 AM,3.2,-16.6,39,30.43,10.0,NW,20.7,26.5,N/A,,Clear,320,2014-01-27 17:55:00
12:15 PM,3.2,-16.6,39,30.42,10.0,NNW,16.1,25.3,N/A,,Clear,340,2014-01-27 18:15:00
12:35 PM,5.0,-16.6,36,30.42,10.0,NNW,18.4,29.9,N/A,,Clear,340,2014-01-27 18:35:00
12:55 PM,5.0,-16.6,36,30.42,10.0,NW,18.4,25.3,N/A,,Clear,320,2014-01-27 18:55:00
1:15 PM,5.0,-16.6,36,30.42,10.0,NW,17.3,24.2,N/A,,Clear,320,2014-01-27 19:15:00
1:35 PM,5.0,-16.6,36,30.42,10.0,NW,16.1,-,N/A,,Clear,310,2014-01-27 19:35:00
1:55 PM,5.0,-16.6,36,30.41,10.0,NW,17.3,23.0,N/A,,Clear,310,2014-01-27 19:55:00
2:15 PM,6.8,-14.8,37,30.41,10.0,NW,16.1,23.0,N/A,,Clear,310,2014-01-27 20:15:00
2:35 PM,6.8,-16.6,34,30.41,10.0,NW,13.8,20.7,N/A,,Clear,320,2014-01-27 20:35:00
2:55 PM,6.8,-14.8,37,30.42,10.0,WNW,10.4,21.9,N/A,,Clear,300,2014-01-27 20:55:00
3:15 PM,6.8,-16.6,34,30.42,10.0,NNW,12.7,20.7,N/A,,Clear,330,2014-01-27 21:15:00
3:35 PM,6.8,-16.6,34,30.42,10.0,NNW,11.5,17.3,N/A,,Clear,340,2014-01-27 21:35:00
3:55 PM,6.8,-16.6,34,30.43,10.0,NNW,10.4,17.3,N/A,,Clear,330,2014-01-27 21:55:00
4:15 PM,6.8,-16.6,34,30.44,10.0,North,11.5,-,N/A,,Clear,350,2014-01-27 22:15:00
4:35 PM,5.0,-16.6,36,30.44,10.0,NW,9.2,-,N/A,,Clear,310,2014-01-27 22:35:00
4:55 PM,5.0,-16.6,36,30.45,10.0,NNW,6.9,13.8,N/A,,Clear,340,2014-01-27 22:55:00
5:15 PM,5.0,-14.8,40,30.45,10.0,NW,9.2,-,N/A,,Clear,320,2014-01-27 23:15:00
5:35 PM,3.2,-14.8,43,30.44,10.0,NNW,6.9,-,N/A,,Clear,330,2014-01-27 23:35:00
5:55 PM,3.2,-14.8,43,30.44,10.0,NNW,5.8,-,N/A,,Clear,340,2014-01-27 23:55:00
6:15 PM,3.2,-13.0,47,30.45,10.0,NNW,5.8,-,N/A,,Clear,330,2014-01-28 00:15:00
6:35 PM,1.4,-14.8,47,30.45,10.0,NNW,4.6,-,N/A,,Clear,340,2014-01-28 00:35:00
6:55 PM,1.4,-13.0,51,30.46,10.0,NNW,4.6,-,N/A,,Clear,330,2014-01-28 00:55:00
7:15 PM,-0.4,-13.0,55,30.46,10.0,NW,4.6,-,N/A,,Clear,320,2014-01-28 01:15:00
7:35 PM,-0.4,-14.8,51,30.47,10.0,NW,4.6,-,N/A,,Clear,310,2014-01-28 01:35:00
7:55 PM,-0.4,-13.0,55,30.46,10.0,Calm,Calm,-,N/A,,Clear,0,2014-01-28 01:55:00
8:15 PM,1.4,-14.8,47,30.47,10.0,NNW,3.5,-,N/A,,Clear,330,2014-01-28 02:15:00
8:35 PM,-0.4,-13.0,55,30.46,10.0,NW,3.5,-,N/A,,Clear,320,2014-01-28 02:35:00
8:55 PM,-0.4,-13.0,55,30.47,10.0,NW,3.5,-,N/A,,Clear,310,2014-01-28 02:55:00
9:15 PM,-0.4,-14.8,51,30.47,10.0,NW,3.5,-,N/A,,Clear,310,2014-01-28 03:15:00
9:35 PM,-2.2,-14.8,55,30.48,10.0,West,4.6,-,N/A,,Clear,260,2014-01-28 03:35:00
9:55 PM,-2.2,-11.2,66,30.48,10.0,SW,4.6,-,N/A,,Clear,230,2014-01-28 03:55:00
10:15 PM,-2.2,-13.0,60,30.47,10.0,West,4.6,-,N/A,,Clear,260,2014-01-28 04:15:00
10:35 PM,-2.2,-14.8,55,30.47,10.0,West,4.6,-,N/A,,Clear,280,2014-01-28 04:35:00
10:55 PM,-2.2,-13.0,60,30.47,10.0,WSW,4.6,-,N/A,,Clear,240,2014-01-28 04:55:00
11:15 PM,-2.2,-13.0,60,30.47,10.0,West,4.6,-,N/A,,Clear,260,2014-01-28 05:15:00
11:35 PM,-2.2,-13.0,60,30.47,10.0,WSW,4.6,-,N/A,,Clear,250,2014-01-28 05:35:00
11:55 PM,-2.2,-14.8,55,30.47,10.0,WSW,4.6,-,N/A,,Clear,240,2014-01-28 05:55:00